Voltar ao catálogo

CHINASAT 5B

SINOSAT 1

AtivoComunicaçõesGEO
NORAD 25404·PAYLOAD·🇨🇳 China

Lançado Jul 18, 1998 de Xichang Satellite Launch Center

Loading…

TLE

AtualizadoSource: Space-Track

Época: Sep 14, 2026, 10:42 UTC

1 25404U 98044A   26257.44625126  .00000062  00000-0  00000-0 0  9990
2 25404  11.1433  44.4424 0006652 214.9247 323.5922  0.99194365102791

Acompanhe CHINASAT 5B em tempo real com AllMySat

Download on the App Store